SCP
0 0 0 0 0 0 0 0 0 0 0 0 0 0 0 0 0 0 0 0 0 0 0 0 0 0 0 0 0 0 0 0
0 0 0 0 0 0 0 0 0 0 0 0 0 0 0 0 0 0 0 0 0 0 0 0 0 0 0 0 0 0 0 0
0 0 0 0 0 0 0 0 0 0 0 0 0 0 0 0 0 0 0 0 0 0 0 0 0 0 0 0 0 0 0 0
0 0 0 0 0 0 0 0 0 0 0 0 0 0 0 0 0 0 0 0 0 0 0 0 0 0 0 0 0 0 0 0
0 0 0 0 0 0 0 0 0 0 0 0 0 0 0 0 0 0 0 0 0 0 0 0 0 0 0 0 0 0 0 0
0 0 0 0 0 0 0 0 0 0 0 0 0 0 0 0 0 0 0 0 0 0 0 0 0 0 0 0 0 0 0 0
0 0 0 0 0 0 0 0 0 0 0 0 0 0 0 0 0 0 0 0 0 0 0 0 0 0 0 0 0 0 0 0
0 0 0 0 0 0 0 0 0 0 0 0 0 0 0 0 0 -0 -0 -0 -0 -0 -0 -0 0 0 0 0 0 0 0 0
0 0 0 0 0 0 0 0 0 0 0 0 0 0 0 0 -0 -0 -0 -0 -0 -0 -0 -0 -0 -0 -0 0 0 0 0 0
0 0 0 0 0 0 0 0 0 0 0 0 0 0 -0 -0 -0 -0 -0 -0 -0 -0 -0 -0 -0 -0 0 0 0 0 0 0
0 0 0 0 0 0 0 0 0 0 0 0 0 0 -0 -0 -0 -0 -0 -0 -0 -0 -0 -0 -0 0 0 0 0 0 0 0
0 0 0 0 0 0 0 0 0 0 0 0 0 -0 -0 -0 -0 -0 -0 0 0 0 0 -0 -0 0 0 0 0 0 0 0
0 0 0 0 0 0 0 0 0 0 0 0 0 0 0 0 -0 -0 -0 -0 -0 -0 -0 -0 -0 0 0 0 0 0 0 0
0 0 0 0 0 0 0 0 0 0 0 0 0 0 0 0 0 0 0 0 -0 -0 -0 -0 -0 -0 0 0 0 0 0 0
0 0 0 0 0 0 0 0 0 0 0 0 0 0 0 0 0 0 0 0 0 0 0 0 0 -0 -0 -0 -0 0 0 0
0 0 0 0 0 0 0 0 0 0 0 0 0 0 0 0 0 0 0 0 0 0 0 0 0 0 0 0 -0 -0 -0 -0
0 0 0 0 0 0 0 0 0 0 0 0 0 0 0 0 0 0 0 0 0 0 0 0 0 0 0 0 0 0 0 -0
0 0 0 0 0 0 0 0 0 0 0 0 0 0 0 0 0 0 0 0 0 0 0 0 0 0 0 0 0 0 -0 -0
0 0 0 0 0 0 0 0 0 0 0 0 0 0 0 0 0 0 0 0 0 0 0 0 0 0 0 0 0 0 -0 -0
0 0 0 0 0 0 0 0 0 0 0 0 0 0 0 0 0 0 0 0 0 0 0 0 0 0 0 0 -0 -0 -0 -0
Wind_Speed_500mb
13 12 13 15 18 21 25 27 30 28 26 27 31 30 31 33 35 33 34 36 40 45 47 51 62 67 69 72 74 79 83 84
7 9 12 14 16 17 19 19 21 23 24 23 23 26 32 34 40 45 44 39 41 46 51 53 57 57 72 75 77 84 85 83
5 3 7 14 17 21 22 28 32 33 31 35 35 34 35 41 45 41 49 52 52 49 49 53 56 57 60 65 75 82 89 88
3 3 9 15 19 24 27 31 34 35 36 38 39 41 43 51 51 60 56 51 56 58 55 55 55 55 55 61 64 76 87 88
6 6 12 19 25 29 32 35 37 39 41 43 42 42 42 43 42 47 51 59 59 60 63 64 63 60 55 54 64 73 75 82
4 7 15 21 25 29 35 41 44 44 44 43 44 45 45 45 47 50 52 56 60 66 61 68 71 67 66 64 64 71 83 91
6 12 19 25 29 35 36 36 38 40 42 44 46 49 51 51 53 55 54 55 59 63 67 74 72 72 73 73 72 75 77 88
9 16 21 25 29 33 34 36 37 41 45 49 51 53 56 60 64 66 69 72 71 67 66 68 72 77 77 76 76 80 85 85
12 17 21 24 26 28 30 35 39 43 47 51 54 57 62 67 72 77 82 85 90 92 86 79 71 71 79 84 83 84 88 89
13 17 20 23 26 28 31 34 39 45 50 55 59 61 65 68 71 74 78 80 83 86 89 90 91 78 72 76 83 89 94 93
11 14 17 19 22 24 29 35 41 46 50 53 56 59 63 68 71 73 75 78 81 84 84 85 84 77 71 68 73 87 94 102
8 11 11 15 19 22 27 33 38 41 44 48 53 59 63 64 66 69 71 70 71 71 72 74 77 79 64 64 63 70 88 96
5 5 8 12 16 22 27 32 36 41 45 48 52 55 58 61 65 67 72 76 79 82 83 82 83 84 86 81 82 78 86 99
5 1 6 10 15 20 27 33 37 41 46 50 51 54 56 60 63 64 65 68 73 78 84 89 89 90 90 95 91 92 93 101
6 5 5 11 18 23 29 34 39 43 47 52 55 56 56 55 56 59 58 62 66 71 78 83 87 87 93 94 97 99 101 100
8 3 5 12 20 26 32 37 42 46 49 51 54 57 59 58 58 57 51 47 51 54 61 68 79 78 80 82 88 88 83 89
4 3 9 15 23 29 35 41 46 48 50 53 56 57 58 61 63 54 51 52 46 48 52 55 56 66 71 75 84 83 76 74
6 9 14 21 26 31 35 39 43 47 50 51 52 53 55 57 61 70 63 56 55 59 59 55 63 66 67 71 73 78 78 78
11 12 17 23 29 33 35 38 41 43 46 48 48 49 51 53 55 58 66 77 75 63 66 66 64 63 67 70 74 73 76 80
13 16 20 26 31 34 37 38 41 43 45 46 47 47 48 51 54 56 60 64 72 77 71 74 70 66 65 66 70 76 76 74
Wind_Direction_500mb
78 61 44 32 27 28 28 30 28 28 24 7 352 352 349 342 335 326 319 309 300 290 281 283 290 289 287 284 282 282 281 281
74 52 44 38 31 19 2 346 346 3 9 13 3 348 341 338 334 334 329 326 318 306 295 286 279 284 292 286 284 282 281 281
117 23 9 15 11 7 5 6 6 3 346 323 322 323 324 328 329 324 323 323 323 318 315 305 294 284 275 288 285 285 273 272
153 340 338 343 350 351 350 350 349 348 347 344 338 330 316 314 314 316 314 310 309 311 311 310 308 304 293 284 280 286 284 284
208 313 336 341 343 344 342 341 339 335 332 331 330 329 326 324 317 312 309 308 311 310 309 310 308 308 306 298 284 276 277 282
231 316 329 333 339 340 339 339 339 340 339 339 341 341 338 337 335 332 329 325 320 318 313 312 311 310 308 300 294 288 277 271
272 315 327 335 338 338 340 342 343 345 348 348 348 349 349 349 347 345 342 336 331 326 323 318 316 313 309 309 300 291 287 284
288 319 328 333 335 336 339 344 352 358 357 355 356 356 353 352 351 350 347 345 344 341 333 326 322 318 316 312 306 300 295 288
289 310 319 326 332 339 345 352 357 358 360 358 357 356 355 355 352 349 346 343 341 339 338 335 331 325 320 318 313 306 300 296
289 310 320 330 339 346 354 359 0 1 2 0 359 360 359 357 354 350 345 343 340 338 336 334 332 334 329 325 319 312 305 302
285 307 319 328 341 351 357 2 4 5 4 1 360 360 359 358 354 352 349 345 341 337 336 334 331 329 325 323 318 312 310 306
265 284 314 338 349 359 4 7 8 5 3 1 359 359 358 355 354 352 349 345 342 339 336 335 333 331 331 324 317 310 305 304
233 289 344 355 360 4 4 4 2 357 353 352 352 352 350 349 350 352 351 349 349 348 345 343 338 334 330 326 322 308 300 297
187 97 15 9 6 2 353 350 349 346 343 343 344 345 346 347 347 349 350 350 350 348 346 344 343 340 335 330 328 322 316 307
147 110 31 358 351 347 343 341 339 338 338 338 339 339 341 343 345 345 347 347 347 346 343 343 343 345 341 337 332 327 323 316
152 134 355 340 336 336 334 333 333 335 336 336 336 336 335 336 339 340 341 341 335 337 335 340 339 344 338 338 337 335 332 325
179 308 323 322 325 327 327 328 328 329 329 332 332 332 331 330 329 335 336 337 339 338 338 331 333 336 338 339 339 338 341 341
245 294 307 314 318 320 322 325 326 328 328 329 329 330 331 332 332 328 330 337 340 340 342 339 337 339 341 339 340 344 347 357
275 297 306 312 314 318 323 326 327 327 326 327 330 332 332 333 333 333 333 331 334 340 342 341 342 348 344 342 339 341 349 355
283 299 310 311 314 318 322 325 326 327 326 326 328 329 329 329 330 331 332 332 331 333 336 339 343 347 345 347 351 351 350 352
Wind_Speed_850mb
13 12 13 15 18 21 25 27 30 28 26 27 31 30 31 33 35 33 34 36 40 45 47 51 62 67 69 72 74 79 83 84
7 9 12 14 16 17 19 19 21 23 24 23 23 26 32 34 40 45 44 39 41 46 51 53 57 57 72 75 77 84 85 83
5 3 7 14 17 21 22 28 32 33 31 35 35 34 35 41 45 41 49 52 52 49 49 53 56 57 60 65 75 82 89 88
3 3 9 15 19 24 27 31 34 35 36 38 39 41 43 51 51 60 56 51 56 58 55 55 55 55 55 61 64 76 87 88
6 6 12 19 25 29 32 35 37 39 41 43 42 42 42 43 42 47 51 59 59 60 63 64 63 60 55 54 64 73 75 82
4 7 15 21 25 29 35 41 44 44 44 43 44 45 45 45 47 50 52 56 60 66 61 68 71 67 66 64 64 71 83 91
6 12 19 25 29 35 36 36 38 40 42 44 46 49 51 51 53 55 54 55 59 63 67 74 72 72 73 73 72 75 77 88
9 16 21 25 29 33 34 36 37 41 45 49 51 53 56 60 64 66 69 72 71 67 66 68 72 77 77 76 76 80 85 85
12 17 21 24 26 28 30 35 39 43 47 51 54 57 62 67 72 77 82 85 90 92 86 79 71 71 79 84 83 84 88 89
13 17 20 23 26 28 31 34 39 45 50 55 59 61 65 68 71 74 78 80 83 86 89 90 91 78 72 76 83 89 94 93
11 14 17 19 22 24 29 35 41 46 50 53 56 59 63 68 71 73 75 78 81 84 84 85 84 77 71 68 73 87 94 102
8 11 11 15 19 22 27 33 38 41 44 48 53 59 63 64 66 69 71 70 71 71 72 74 77 79 64 64 63 70 88 96
5 5 8 12 16 22 27 32 36 41 45 48 52 55 58 61 65 67 72 76 79 82 83 82 83 84 86 81 82 78 86 99
5 1 6 10 15 20 27 33 37 41 46 50 51 54 56 60 63 64 65 68 73 78 84 89 89 90 90 95 91 92 93 101
6 5 5 11 18 23 29 34 39 43 47 52 55 56 56 55 56 59 58 62 66 71 78 83 87 87 93 94 97 99 101 100
8 3 5 12 20 26 32 37 42 46 49 51 54 57 59 58 58 57 51 47 51 54 61 68 79 78 80 82 88 88 83 89
4 3 9 15 23 29 35 41 46 48 50 53 56 57 58 61 63 54 51 52 46 48 52 55 56 66 71 75 84 83 76 74
6 9 14 21 26 31 35 39 43 47 50 51 52 53 55 57 61 70 63 56 55 59 59 55 63 66 67 71 73 78 78 78
11 12 17 23 29 33 35 38 41 43 46 48 48 49 51 53 55 58 66 77 75 63 66 66 64 63 67 70 74 73 76 80
13 16 20 26 31 34 37 38 41 43 45 46 47 47 48 51 54 56 60 64 72 77 71 74 70 66 65 66 70 76 76 74
Wind_Direction_850mb
78 61 44 32 27 28 28 30 28 28 24 7 352 352 349 342 335 326 319 309 300 290 281 283 290 289 287 284 282 282 281 281
74 52 44 38 31 19 2 346 346 3 9 13 3 348 341 338 334 334 329 326 318 306 295 286 279 284 292 286 284 282 281 281
117 23 9 15 11 7 5 6 6 3 346 323 322 323 324 328 329 324 323 323 323 318 315 305 294 284 275 288 285 285 273 272
153 340 338 343 350 351 350 350 349 348 347 344 338 330 316 314 314 316 314 310 309 311 311 310 308 304 293 284 280 286 284 284
208 313 336 341 343 344 342 341 339 335 332 331 330 329 326 324 317 312 309 308 311 310 309 310 308 308 306 298 284 276 277 282
231 316 329 333 339 340 339 339 339 340 339 339 341 341 338 337 335 332 329 325 320 318 313 312 311 310 308 300 294 288 277 271
272 315 327 335 338 338 340 342 343 345 348 348 348 349 349 349 347 345 342 336 331 326 323 318 316 313 309 309 300 291 287 284
288 319 328 333 335 336 339 344 352 358 357 355 356 356 353 352 351 350 347 345 344 341 333 326 322 318 316 312 306 300 295 288
289 310 319 326 332 339 345 352 357 358 360 358 357 356 355 355 352 349 346 343 341 339 338 335 331 325 320 318 313 306 300 296
289 310 320 330 339 346 354 359 0 1 2 0 359 360 359 357 354 350 345 343 340 338 336 334 332 334 329 325 319 312 305 302
285 307 319 328 341 351 357 2 4 5 4 1 360 360 359 358 354 352 349 345 341 337 336 334 331 329 325 323 318 312 310 306
265 284 314 338 349 359 4 7 8 5 3 1 359 359 358 355 354 352 349 345 342 339 336 335 333 331 331 324 317 310 305 304
233 289 344 355 360 4 4 4 2 357 353 352 352 352 350 349 350 352 351 349 349 348 345 343 338 334 330 326 322 308 300 297
187 97 15 9 6 2 353 350 349 346 343 343 344 345 346 347 347 349 350 350 350 348 346 344 343 340 335 330 328 322 316 307
147 110 31 358 351 347 343 341 339 338 338 338 339 339 341 343 345 345 347 347 347 346 343 343 343 345 341 337 332 327 323 316
152 134 355 340 336 336 334 333 333 335 336 336 336 336 335 336 339 340 341 341 335 337 335 340 339 344 338 338 337 335 332 325
179 308 323 322 325 327 327 328 328 329 329 332 332 332 331 330 329 335 336 337 339 338 338 331 333 336 338 339 339 338 341 341
245 294 307 314 318 320 322 325 326 328 328 329 329 330 331 332 332 328 330 337 340 340 342 339 337 339 341 339 340 344 347 357
275 297 306 312 314 318 323 326 327 327 326 327 330 332 332 333 333 333 333 331 334 340 342 341 342 348 344 342 339 341 349 355
283 299 310 311 314 318 322 325 326 327 326 326 328 329 329 329 330 331 332 332 331 333 336 339 343 347 345 347 351 351 350 352